Date String (YYYY-MM-DD hh:mm:ss) UTC,Instrument flags,absolute air pressure of the measurement (hPa),sample flow rate (lpm),inlet stack bypass flow (lpm),air temperature of the measurement (°C),ambient temperature measured by the external sensor (°C),aerosol sample conditioner tube jacket temperature (°C),OPC LED temperature (°C),internal box temperature (°C),relative humidity of the measurement (%),span deviation,mass concentration of particles derived from Lorenz-Mie calculation of OPC scattering (μg/m³),mass concentration of particles derived from Lorenz-Mie calculation of OPC scattering (μg/m³),mass concentration of particles derived from Lorenz-Mie calculation of OPC scattering (μg/m³)
DateTimeUTC,F1_M11,P_M11,Q1_M11,Q2_M11,T1_M11,T2_M11,T3_M11,T4_M11,T5_M11,U1_M11,ZSPAN_M11,X0_M11,X2_M11,X1_M11
2024-06-04 12:00:00,SystemResetWarning,0823.0,5.00,000.00,030.8,030.1,000.0,039.2,032.5,017.6,0000.0,0002.52,0001.14,0000.65
2024-06-04 12:01:00,SystemResetWarning,0822.9,5.00,000.00,030.8,030.1,000.0,039.2,032.5,017.6,0000.0,0002.36,0001.09,0000.65
2024-06-04 12:02:00,SystemResetWarning,0823.0,5.00,000.00,030.8,030.1,000.0,039.2,032.5,017.6,0000.0,0002.32,0001.12,0000.65
2024-06-04 12:03:00,SystemResetWarning,0823.1,5.00,000.00,030.8,030.1,000.0,039.2,032.5,017.5,0000.0,0002.41,0001.19,0000.65
2024-06-04 12:04:00,SystemResetWarning,0822.9,4.99,000.00,030.8,030.1,000.0,039.2,032.5,017.3,0000.0,0002.49,0001.21,0000.67
2024-06-04 12:05:00,SystemResetWarning,0822.9,5.00,000.00,030.9,030.1,000.0,039.2,032.5,017.2,0000.0,0002.51,0001.18,0000.67
2024-06-04 12:06:00,SystemResetWarning,0822.9,5.01,000.00,030.9,030.1,000.0,039.2,032.5,017.1,0000.0,0002.78,0001.19,0000.67
2024-06-04 12:07:00,SystemResetWarning,0823.0,5.00,000.00,030.9,030.1,000.0,039.2,032.5,017.1,0000.0,0002.58,0001.13,0000.66
2024-06-04 12:08:00,SystemResetWarning,0823.0,5.00,000.00,030.9,030.1,000.0,039.2,032.6,017.0,0000.0,0002.57,0001.11,0000.66
2024-06-04 12:09:00,SystemResetWarning,0823.0,4.99,000.00,030.9,030.1,000.0,039.2,032.5,016.7,0000.0,0002.59,0001.11,0000.65
2024-06-04 12:10:00,SystemResetWarning,0823.1,5.00,000.00,030.9,030.1,000.0,039.2,032.5,016.5,0000.0,0002.58,0001.10,0000.65
2024-06-04 12:11:00,SystemResetWarning,0823.1,5.00,000.00,030.9,030.1,000.0,039.2,032.5,016.3,0000.0,0002.55,0001.09,0000.63
2024-06-04 12:12:00,SystemResetWarning,0823.1,5.00,000.00,030.9,030.1,000.0,039.2,032.6,016.5,0000.0,0002.52,0001.07,0000.62
2024-06-04 12:13:00,SystemResetWarning,0823.1,5.00,000.00,030.9,030.1,000.0,039.3,032.6,017.0,0000.0,0002.39,0001.03,0000.60
2024-06-04 12:14:00,SystemResetWarning,0823.1,5.00,000.00,030.9,030.1,000.0,039.3,032.6,016.8,0000.0,0005.04,0000.91,0000.58
2024-06-04 12:15:00,SystemResetWarning,0823.1,5.00,000.00,030.9,030.1,000.0,039.3,032.6,016.6,0000.0,0005.46,0000.86,0000.56
2024-06-04 12:16:00,SystemResetWarning,0823.1,5.00,000.00,030.9,030.2,000.0,039.3,032.6,016.6,0000.0,0005.44,0000.86,0000.56
2024-06-04 12:17:00,SystemResetWarning,0823.1,5.00,000.00,030.9,030.2,000.0,039.3,032.6,016.5,0000.0,0005.39,0000.84,0000.55
2024-06-04 12:18:00,SystemResetWarning,0823.1,5.00,000.00,030.9,030.2,000.0,039.3,032.6,016.3,0000.0,0005.34,0000.83,0000.55
2024-06-04 12:19:00,SystemResetWarning,0823.1,5.00,000.00,030.9,030.2,000.0,039.3,032.6,016.4,0000.0,0005.40,0000.84,0000.55
2024-06-04 12:20:00,SystemResetWarning,0823.1,4.99,000.00,030.9,030.2,000.0,039.3,032.6,015.8,0000.0,0005.57,0000.84,0000.55
2024-06-04 12:21:00,SystemResetWarning,0823.1,4.99,000.00,030.9,030.2,000.0,039.3,032.6,015.9,0000.0,0005.64,0000.85,0000.56
2024-06-04 12:22:00,SystemResetWarning,0823.1,5.00,000.00,030.9,030.2,000.0,039.3,032.6,016.0,0000.0,0005.82,0000.89,0000.56
2024-06-04 12:23:00,SystemResetWarning,0823.2,5.01,000.00,030.9,030.2,000.0,039.3,032.6,016.6,0000.0,0006.02,0000.93,0000.57
2024-06-04 12:24:00,SystemResetWarning,0823.3,5.01,000.00,030.9,030.2,000.0,039.3,032.6,016.5,0000.0,0006.13,0000.96,0000.59
2024-06-04 12:25:00,SystemResetWarning,0823.3,5.00,000.00,030.9,030.2,000.0,039.3,032.6,016.8,0000.0,0003.15,0000.97,0000.58
2024-06-04 12:26:00,SystemResetWarning,0823.3,5.01,000.00,030.9,030.2,000.0,039.3,032.6,016.8,0000.0,0002.79,0000.98,0000.60
2024-06-04 12:27:00,SystemResetWarning,0823.3,5.01,000.00,030.9,030.2,000.0,039.3,032.6,017.1,0000.0,0002.88,0001.00,0000.60
2024-06-04 12:28:00,SystemResetWarning,0823.3,4.99,000.00,030.9,030.2,000.0,039.3,032.6,017.0,0000.0,0002.60,0001.04,0000.61
2024-06-04 12:29:00,SystemResetWarning,0823.3,4.99,000.00,030.9,030.2,000.0,039.3,032.6,016.8,0000.0,0002.71,0001.09,0000.62
2024-06-04 12:30:00,SystemResetWarning,0823.4,4.99,000.00,030.9,030.2,000.0,039.3,032.6,017.1,0000.0,0002.69,0001.10,0000.61
2024-06-04 12:31:00,SystemResetWarning,0823.4,5.00,000.00,030.9,030.2,000.0,039.3,032.6,017.3,0000.0,0002.49,0001.10,0000.61
2024-06-04 12:32:00,SystemResetWarning,0823.3,5.01,000.00,030.9,030.2,000.0,039.3,032.6,017.2,0000.0,0002.53,0001.13,0000.61
2024-06-04 12:33:00,SystemResetWarning,0823.3,5.00,000.00,030.9,030.2,000.0,039.3,032.6,016.9,0000.0,0003.00,0001.13,0000.62
2024-06-04 12:34:00,SystemResetWarning,0823.3,4.99,000.00,030.9,030.2,000.0,039.3,032.6,017.1,0000.0,0003.26,0001.14,0000.62
2024-06-04 12:35:00,SystemResetWarning,0823.3,4.99,000.00,030.9,030.2,000.0,039.3,032.6,017.4,0000.0,0003.23,0001.14,0000.62
2024-06-04 12:36:00,SystemResetWarning,0823.3,5.00,000.00,030.9,030.2,000.0,039.3,032.6,017.2,0000.0,0003.25,0001.18,0000.63
2024-06-04 12:37:00,SystemResetWarning,0823.3,5.01,000.00,030.9,030.2,000.0,039.3,032.6,016.9,0000.0,0003.16,0001.17,0000.63
2024-06-04 12:38:00,SystemResetWarning,0823.4,5.00,000.00,030.9,030.2,000.0,039.3,032.6,017.3,0000.0,0003.11,0001.15,0000.62
2024-06-04 12:39:00,SystemResetWarning,0823.4,4.99,000.00,031.0,030.2,000.0,039.3,032.6,017.9,0000.0,0003.13,0001.16,0000.62
2024-06-04 12:40:00,SystemResetWarning,0823.5,4.99,000.00,031.0,030.2,000.0,039.3,032.6,017.9,0000.0,0003.12,0001.15,0000.63
2024-06-04 12:41:00,SystemResetWarning,0823.4,5.00,000.00,031.0,030.2,000.0,039.3,032.6,018.0,0000.0,0003.62,0001.16,0000.63
2024-06-04 12:42:00,SystemResetWarning,0823.4,5.01,000.00,031.0,030.2,000.0,039.3,032.6,018.0,0000.0,0005.18,0001.15,0000.62
2024-06-04 12:43:00,SystemResetWarning,0823.4,5.00,000.00,031.0,030.2,000.0,039.3,032.6,017.9,0000.0,0005.62,0001.15,0000.63
2024-06-04 12:44:00,SystemResetWarning,0823.4,4.99,000.00,031.0,030.2,000.0,039.3,032.6,018.1,0000.0,0005.28,0001.16,0000.63
2024-06-04 12:45:00,SystemResetWarning,0823.4,4.99,000.00,031.0,030.2,000.0,039.3,032.6,018.2,0000.0,0004.80,0001.17,0000.64
2024-06-04 12:46:00,SystemResetWarning,0823.4,5.00,000.00,031.0,030.2,000.0,039.3,032.6,017.7,0000.0,0005.28,0001.15,0000.64
2024-06-04 12:47:00,SystemResetWarning,0823.5,5.01,000.00,031.0,030.3,000.0,039.3,032.6,017.7,0000.0,0005.80,0001.13,0000.64
2024-06-04 12:48:00,SystemResetWarning,0823.5,5.01,000.00,031.0,030.3,000.0,039.3,032.6,016.9,0000.0,0005.99,0001.18,0000.65
2024-06-04 12:49:00,SystemResetWarning,0823.5,4.99,000.00,031.0,030.3,000.0,039.3,032.7,017.6,0000.0,0006.12,0001.23,0000.66
2024-06-04 12:50:00,SystemResetWarning,0823.4,4.99,000.00,031.0,030.3,000.0,039.3,032.7,017.0,0000.0,0007.14,0001.22,0000.67
2024-06-04 12:51:00,SystemResetWarning,0823.4,5.00,000.00,031.0,030.3,000.0,039.3,032.7,017.1,0000.0,0007.31,0001.23,0000.67
2024-06-04 12:52:00,SystemResetWarning,0823.5,5.00,000.00,031.0,030.3,000.0,039.4,032.6,017.0,0000.0,0007.07,0001.26,0000.67
2024-06-04 12:53:00,SystemResetWarning,0823.5,5.00,000.00,031.0,030.3,000.0,039.4,032.7,017.1,0000.0,0005.78,0001.29,0000.69
2024-06-04 12:54:00,SystemResetWarning,0823.5,5.00,000.00,031.0,030.3,000.0,039.4,032.7,016.5,0000.0,0005.05,0001.33,0000.69
2024-06-04 12:55:00,SystemResetWarning,0823.4,5.01,000.00,031.0,030.3,000.0,039.4,032.7,016.7,0000.0,0004.97,0001.28,0000.69
2024-06-04 12:56:00,SystemResetWarning,0823.4,5.00,000.00,031.1,030.3,000.0,039.4,032.8,016.0,0000.0,0004.79,0001.24,0000.69
2024-06-04 12:57:00,SystemResetWarning,0823.4,5.00,000.00,031.1,030.3,000.0,039.4,032.7,015.4,0000.0,0004.61,0001.25,0000.69
2024-06-04 12:58:00,SystemResetWarning,0823.4,5.00,000.00,031.1,030.3,000.0,039.4,032.7,015.5,0000.0,0003.96,0001.29,0000.70
2024-06-04 12:59:00,SystemResetWarning,0823.4,5.00,000.00,031.1,030.3,000.0,039.4,032.7,015.4,0000.0,0003.78,0001.23,0000.69
